User: anonymous   Login
Location: Mentone
(34.5413°N, 85.5351°W)
Time: 02:22:57
(UTC-06:00)
Language:

ADEOS Rocket - Orbit

View from above orbital plane
View from above orbital plane
View from above satellite
View from above satellite

Ground track
Ground track

The orbit data is extracted from the following two-line orbital elements,

1 24279U 96046C   15026.59008547  .00000001  00000-0  47169-4 0  7902
2 24279 098.7170 071.1250 0299761 355.4911 157.9025 13.47011041906765
Epoch (UTC): 26 January 2015 14:09:43
Eccentricity: 0.0299761
inclination: 98.7170°
perigee height: 859 km
apogee height: 1307 km
right ascension of ascending node: 71.1250°
argument of perigee: 355.4911°
revolutions per day: 13.47011041
mean anomaly at epoch: 157.9025°
orbit number at epoch: 90676

The dashed part of the orbit path shows where the satellite is in the earth's shadow,  

DLR